Location: Bussy-Saint-Georges
(48.8410°N, 2.7017°E)
Time: 22:28:03
(UTC+00:00)

Cosmos 1821 Rocket - Pass Details

Date: 18 October 2021
Orbit: 944 x 1005 km, 82.9° (Epoch: 07 December)

Event Time Altitude Azimuth Distance (km) Brightness Sun altitude
Rises 18:14:01 0° 190° (S) 3,719 7.2 -14.0°
Reaches altitude 10° 18:16:33 10° 191° (SSW) 2,774 6.5 -14.4°
Maximum altitude 18:22:57 81° 279° (W) 1,021 4.2 -15.4°
Drops below altitude 10° 18:29:22 10° 8° (N) 2,777 6.3 -16.5°
Sets 18:31:54 0° 9° (N) 3,723 7.0 -16.9°
